DECAYED

STARLINK-6246, 57078 (Decayed)

Orbit data source: Space-Track

STARLINK-6246, 57078 was a payload satellite owned by SpaceX/Seattle (US) in LEO that was launched on Thu, 22 Jun 2023 UTC via an FALCON 9 launch vehicle from the Air Force Western Test Range (AFWTR). Payload-class satellites include a variety of spacecraft equipped with specific instruments for various scientific and technological missions. These include communications satellites like Starlink; space stations such as the ISS; scientific satellites like the Hubble; Earth observation satellites from companies like Planet Labs, Umbra, and HawkEye 360; GPS; miniature CubeSats for education and research; and military/defense satellites.

Not visible in the next 10 days
Identifier
57078, 2023-088AG
Orbit
Decayed
Country
Flag of USUS
Related business
Manufacturer
SpaceX/Seattle
Mission
Decayed Commercial Communications
Bus & Motor
STARLINK, Unknown motor
Mass
305 kg wet, ~290 kg dry
Launch date (UTC)
Icon of a cake. It is the launch day of the satellite!2023-06-22 (3 years ago)
Launch vehicle
FALCON 9
Launch site
Air Force Western Test Range (AFWTR)
Object type
Payload
Rocket body
Debris
Shape & HBR
Box + 1 Pan, 10.1 m
Radar Cross Section
11.087 m², Large (>1 m²)

Expand to show TLE details & history
Last TLE update: 5 months ago

TLE from 5 months ago
0 STARLINK-6246
1 57078U 23088AG  26032.98753382  .05884990  92455-5  64971-3 0  9999
2 57078  42.9865 256.6655 0007866 279.3085  80.6917 16.36100402145340
Epoch: 2026-02-01T23:42Z
TLE epoch observation values (Epoch: 2026-02-01T23:42:02.922Z)
Latitude
0.00003°
Longitude
128.96407°
Altitude
175.13 km
Speed
7.804 km/s
True Right ascension
17h 06m 39s
True Declination
0° 00' 00"
Sunlit
Object was in daylight at epoch
Visualization orbit readout
Latitude
Unknown
Longitude
Unknown
Altitude
Unknown
Speed
Unknown
Apparent Right ascension
Unknown
Apparent Declination
Unknown
Sunlit
N/A
Visualization observer readout
Local Sidereal Time
21:52:41
Azimuth
Unknown
Elevation
Unknown
Doppler factor
Unknown
Orbital elements
Apogee altitude
183.392 km
Perigee altitude
173.078 km
Semi-major axis
6,556.372 km
Eccentricity
0.00079
Inclination
42.9865°
RAAN
256.6655°
Arg. of periapsis
279.3085°
True anomaly
80.78066°
Mean anomaly
80.6917°
Eccentric anomaly
80.73618°
Mean motion
4.08835 °/min
Orbital period
88.06 mins
BSTAR
0.00064971
Loading maneuver chart data...
Computing Atmospheric mass density...
Loading historical data...
Loading historical data...
Loading historical data...
Loading historical data...
Loading historical data...
Loading historical data...
Loading historical data...

Documentation

Showing up to 5 results
|